Regional Weather Roundup
Issued by NWS Midland/Odessa, TX

Skip options and go directly to product.
Home | Oldest Version | Previous Version | Current Version | All | Text Only | Save Text | Print | Product List | Glossary Off

Skip product version selection by date and time.   

578
ASUS44 KMAF 241010
RWRMAF
MIDLAND AREA WEATHER ROUNDUP
NATIONAL WEATHER SERVICE MIDLAND TX
500 AM CDT THU JUL 24 2014

...IN SOUTHWEST TEXAS AND SOUTHEAST NEW MEXICO...

CITY           SKY/WX    TMP DP  RH WIND       PRES   REMARKS
ALPINE         PTCLDY    67  56  68 CALM      30.28S
ANDREWS        FAIR      74  55  52 SE3       30.17F
ARTESIA        CLEAR     73  50  43 CALM      30.18S
BIG SPRING     MOCLDY    79  61  54 SE6       30.14F
CARLSBAD       CLEAR     76  51  41 CALM      30.16R
DRYDEN           N/A     81  60  48 N7        30.07S
FORT STOCKTON  PTCLDY    76  56  49 SE7       30.14S
GUAD PASS      CLEAR     71  51  49 NE15      30.31F
HOBBS          CLEAR     70  54  56 E5        30.21S
MARFA          PTCLDY    63  55  77 NE6       30.27S
MIDLAND AIRPK  MOCLDY    76  62  61 SE5       30.15S
MIDLAND INTL   MOCLDY    76  61  59 SE8       30.14F
ODESSA         MOCLDY    78  61  55 SE8       30.15F
PECOS          PTCLDY    74  55  52 E5        30.11S
PRESIDIO       FAIR      80  53  39 N6        30.11S
SEMINOLE       PTCLDY    72  55  54 CALM      30.19S
SNYDER         PTCLDY    74  63  66 S6        30.13R
WINK           MOCLDY    75  63  66 E6        30.11F
$$
...OTHER STATIONS IN TEXAS...

CITY           SKY/WX    TMP DP  RH WIND       PRES   REMARKS
ABILENE        PTCLDY    76  65  68 S7        30.07F
AMARILLO       CLEAR     69  62  78 S9        30.20S
AUSTIN         MOCLDY    75  71  87 CALM      29.99S
BROWNSVILLE    CLEAR     76  74  93 CALM      29.97R
CORPUS CHRISTI MOCLDY    78  74  87 S6        29.97F
DALLAS FTW     MOCLDY    77  66  68 SE3       30.03R
DEL RIO        CLEAR     83  66  56 E7        29.99F
EL PASO        CLEAR     75  52  44 E6        30.16S
HOUSTON INT    MOCLDY    74  72  93 CALM      29.98S
LUBBOCK        CLEAR     72  61  68 S6        30.17F
SAN ANGELO     PTCLDY    75  64  68 CALM      30.07F
SAN ANTONIO    MOCLDY    81  69  67 S5        30.00S
WACO           CLOUDY    75  67  76 CALM      30.01S
WICHITA FALLS  NOT AVBL
$$
...OTHER LOCATIONS IN NEW MEXICO...

CITY           SKY/WX    TMP DP  RH WIND       PRES   REMARKS
ALAMAGORDO     PTCLDY    70  48  46 SE7       30.21S
ALBUQUERQUE    PTCLDY    73  53  49 N5        30.30F
CANNON AFB     CLEAR     68  60  73 SE2       30.24F
CLOVIS         NOT AVBL
HOLLOMAN AFB   PTCLDY    72  45  37 CALM      30.19S
ROSWELL        CLEAR     73  54  51 CALM      30.18F
RUIDOSO        CLEAR     64  45  48 MISG      30.44S
SANTA FE       MOCLDY    66  49  54 E7        30.38F
TRUTH OR CONSE LGT RAIN  70  54  56 NW6       30.24S
TUCUMCARI      CLEAR     71  58  63 W5        30.20F
$$

USA.gov is the U.S. government's official web portal to all federal, state and local government web resources and services.